TimeAKST,TemperatureF,Dew PointF,Humidity,Sea Level PressureIn,VisibilityMPH,Wind Direction,Wind SpeedMPH,Gust SpeedMPH,PrecipitationIn,Events,Conditions,WindDirDegrees,DateUTC
12:54 AM,9.0,3.0,77,29.53,10.0,WNW,15.0,-,N/A,,Overcast,290,2011-11-25 09:54:00
1:54 AM,10.0,3.0,73,29.57,10.0,WNW,18.4,-,N/A,,Overcast,300,2011-11-25 10:54:00
2:54 AM,10.0,3.9,76,29.60,10.0,WNW,16.1,-,N/A,,Mostly Cloudy,290,2011-11-25 11:54:00
3:54 AM,5.0,1.0,84,29.62,10.0,WNW,18.4,-,N/A,,Overcast,290,2011-11-25 12:54:00
4:25 AM,5.0,1.4,85,29.62,10.0,WNW,17.3,-,N/A,,Overcast,290,2011-11-25 13:25:00
4:54 AM,9.0,3.9,80,29.63,4.0,WNW,16.1,-,0.00,Snow,Light Snow,300,2011-11-25 13:54:00
5:36 AM,6.8,1.4,79,29.63,2.5,WNW,16.1,-,0.00,Snow,Light Snow,290,2011-11-25 14:36:00
5:46 AM,6.8,1.4,79,29.63,1.8,WNW,18.4,-,0.00,Snow,Light Snow,290,2011-11-25 14:46:00
5:54 AM,8.1,3.0,80,29.64,3.0,WNW,19.6,-,0.00,Snow,Light Snow,290,2011-11-25 14:54:00
6:19 AM,6.8,1.4,79,29.64,6.0,WNW,16.1,-,0.00,Snow,Light Snow,290,2011-11-25 15:19:00
6:54 AM,8.1,3.9,83,29.63,6.0,WNW,17.3,-,0.00,Snow,Light Snow,290,2011-11-25 15:54:00
7:36 AM,8.6,3.2,79,29.64,5.0,WNW,17.3,-,0.00,Snow,Light Snow,290,2011-11-25 16:36:00
7:54 AM,9.0,5.0,84,29.65,3.0,WNW,15.0,-,0.00,Snow,Light Snow,300,2011-11-25 16:54:00
8:31 AM,12.2,8.6,85,29.65,2.5,WNW,15.0,-,0.00,Snow,Light Snow,300,2011-11-25 17:31:00
8:41 AM,10.4,6.8,85,29.65,1.8,WNW,15.0,-,0.00,Snow,Light Snow,290,2011-11-25 17:41:00
8:54 AM,10.0,6.1,84,29.67,1.2,WNW,15.0,-,0.00,Snow,Light Snow,300,2011-11-25 17:54:00
9:08 AM,10.4,6.8,85,29.66,0.8,WNW,13.8,-,0.00,Snow,Light Snow,290,2011-11-25 18:08:00
9:29 AM,10.4,6.8,85,29.66,0.2,WNW,16.1,-,0.00,Fog-Snow,Snow,290,2011-11-25 18:29:00
9:40 AM,10.4,6.8,85,29.66,0.5,WNW,16.1,-,0.00,Fog-Snow,Light Snow,290,2011-11-25 18:40:00
9:54 AM,10.0,7.0,87,29.68,0.8,WNW,15.0,-,0.00,Snow,Light Snow,290,2011-11-25 18:54:00
10:16 AM,10.4,8.6,92,29.68,1.2,West,16.1,-,0.00,Snow,Light Snow,280,2011-11-25 19:16:00
10:24 AM,10.4,8.6,92,29.69,0.8,WNW,16.1,-,0.00,Snow,Light Snow,290,2011-11-25 19:24:00
10:54 AM,10.9,8.1,88,29.71,0.8,WNW,13.8,-,0.01,Snow,Light Snow,290,2011-11-25 19:54:00
11:54 AM,16.0,12.9,88,29.74,0.5,WNW,10.4,-,0.01,Fog-Snow,Snow,300,2011-11-25 20:54:00
12:13 PM,15.8,12.2,86,29.73,1.0,WNW,9.2,-,0.00,Snow,Light Snow,290,2011-11-25 21:13:00
12:26 PM,15.8,12.2,86,29.73,2.0,WNW,6.9,-,0.00,Snow,Light Snow,300,2011-11-25 21:26:00
12:37 PM,12.2,10.4,92,29.74,4.0,West,9.2,-,0.00,Snow,Light Snow,280,2011-11-25 21:37:00
12:54 PM,14.0,10.9,88,29.75,3.0,WNW,6.9,-,0.00,Snow,Light Snow,290,2011-11-25 21:54:00
1:06 PM,14.0,10.4,86,29.74,2.0,WNW,10.4,-,0.00,Snow,Light Snow,290,2011-11-25 22:06:00
1:20 PM,14.0,10.4,86,29.74,2.5,WNW,9.2,-,0.00,Snow,Light Snow,290,2011-11-25 22:20:00
1:28 PM,14.0,10.4,86,29.75,6.0,Variable,3.5,-,0.00,Snow,Light Snow,0,2011-11-25 22:28:00
1:54 PM,14.0,10.9,88,29.75,3.0,WNW,6.9,-,0.00,Snow,Light Snow,290,2011-11-25 22:54:00
2:01 PM,15.8,10.4,79,29.73,1.8,WNW,8.1,-,0.00,Snow,Light Snow,290,2011-11-25 23:01:00
2:11 PM,15.8,12.2,86,29.72,3.0,WNW,8.1,-,0.00,Snow,Light Snow,300,2011-11-25 23:11:00
2:19 PM,15.8,10.4,79,29.72,1.8,WNW,11.5,-,0.00,Snow,Light Snow,290,2011-11-25 23:19:00
2:27 PM,14.0,10.4,86,29.71,1.5,West,13.8,-,0.01,Snow,Light Snow,280,2011-11-25 23:27:00
2:43 PM,14.0,10.4,86,29.71,0.8,WNW,12.7,-,0.01,Snow,Light Snow,290,2011-11-25 23:43:00
2:54 PM,14.0,10.9,88,29.72,0.2,WNW,12.7,-,0.01,Fog-Snow,Snow,290,2011-11-25 23:54:00
3:07 PM,14.0,10.4,86,29.71,0.8,WNW,11.5,-,0.01,Snow,Light Snow,290,2011-11-26 00:07:00
3:21 PM,14.0,10.4,86,29.71,0.8,WNW,12.7,-,0.01,Snow,Light Snow,290,2011-11-26 00:21:00
3:54 PM,16.0,12.9,88,29.72,0.5,WNW,13.8,-,0.03,Fog-Snow,Snow,300,2011-11-26 00:54:00
4:54 PM,15.1,12.9,91,29.71,0.8,WNW,8.1,-,0.04,Snow,Light Snow,290,2011-11-26 01:54:00
5:07 PM,15.8,12.2,86,29.70,1.0,WNW,11.5,-,0.00,Snow,Light Snow,290,2011-11-26 02:07:00
5:17 PM,15.8,12.2,86,29.70,1.0,WNW,12.7,-,0.01,Snow,Light Snow,290,2011-11-26 02:17:00
5:30 PM,15.8,12.2,86,29.70,2.5,WNW,12.7,-,0.01,Snow,Light Snow,290,2011-11-26 02:30:00
5:40 PM,17.6,14.0,86,29.70,3.0,WNW,12.7,-,0.01,Snow,Light Snow,290,2011-11-26 02:40:00
5:47 PM,17.6,14.0,86,29.70,1.8,WNW,11.5,-,0.01,Snow,Light Snow,290,2011-11-26 02:47:00
5:54 PM,17.1,15.1,92,29.70,1.0,WNW,11.5,-,0.02,Snow,Light Snow,290,2011-11-26 02:54:00
6:00 PM,17.6,15.8,93,29.69,0.8,WNW,13.8,-,0.00,Snow,Light Snow,300,2011-11-26 03:00:00
6:18 PM,19.4,15.8,86,29.69,1.5,WNW,11.5,-,0.00,Snow,Light Snow,290,2011-11-26 03:18:00
6:24 PM,19.4,15.8,86,29.68,2.0,NW,9.2,-,0.00,Snow,Light Snow,310,2011-11-26 03:24:00
6:35 PM,17.6,15.8,93,29.68,1.8,West,12.7,-,0.00,Snow,Light Snow,280,2011-11-26 03:35:00
6:47 PM,17.6,14.0,86,29.68,1.2,NW,10.4,-,0.00,Snow,Light Snow,310,2011-11-26 03:47:00
6:54 PM,19.0,16.0,88,29.69,0.8,West,12.7,-,0.01,Snow,Light Snow,280,2011-11-26 03:54:00
7:08 PM,15.8,14.0,93,29.67,1.0,WNW,10.4,-,0.00,Snow,Light Snow,290,2011-11-26 04:08:00
7:49 PM,17.6,14.0,86,29.66,2.0,WNW,10.4,-,0.01,Snow,Light Snow,290,2011-11-26 04:49:00
7:54 PM,16.0,14.0,92,29.67,1.8,WNW,9.2,-,0.01,Snow,Light Snow,290,2011-11-26 04:54:00
8:05 PM,17.6,15.8,93,29.66,1.0,WNW,6.9,-,0.00,Snow,Light Snow,290,2011-11-26 05:05:00
8:29 PM,15.8,14.0,93,29.65,0.8,West,12.7,-,0.01,Snow,Light Snow,280,2011-11-26 05:29:00
8:47 PM,19.4,15.8,86,29.65,1.0,WNW,11.5,-,0.02,Snow,Light Snow,300,2011-11-26 05:47:00
8:52 PM,17.6,15.8,93,29.65,0.8,WNW,10.4,-,0.02,Snow,Light Snow,290,2011-11-26 05:52:00
8:54 PM,18.0,16.0,92,29.65,0.8,WNW,10.4,-,0.02,Snow,Light Snow,300,2011-11-26 05:54:00
9:54 PM,17.1,15.1,92,29.64,0.5,WNW,11.5,-,0.05,Fog-Snow,Snow,290,2011-11-26 06:54:00
10:54 PM,19.9,17.1,89,29.61,1.0,WNW,11.5,-,0.03,Snow,Light Snow,300,2011-11-26 07:54:00
11:14 PM,19.4,17.6,93,29.59,0.8,WNW,12.7,-,0.00,Snow,Light Snow,290,2011-11-26 08:14:00
11:30 PM,19.4,17.6,93,29.59,0.8,WNW,12.7,-,0.01,Snow,Light Snow,290,2011-11-26 08:30:00
11:37 PM,17.6,15.8,93,29.58,1.0,WNW,12.7,-,0.01,Snow,Light Snow,290,2011-11-26 08:37:00
11:54 PM,18.0,15.1,88,29.59,1.0,WNW,12.7,-,0.01,Snow,Light Snow,300,2011-11-26 08:54:00